Location: Unspecified
(35.6961°N, 0.0000°E)
Time: 21:44:19
(UTC+00:00)

Explorer 11/Cluster Stage 4 - Pass Details

Date: 25 May 2019
Orbit: 467 x 1260 km, 28.8° (Epoch: 17 June)

Event Time Altitude Azimuth Distance (km) Brightness Sun altitude
Rises 03:13:51 0° 246° (WSW) 3,387 - -16.7°
Reaches altitude 10° 03:16:51 10° 237° (WSW) 2,303 - -16.3°
Exits shadow 03:19:49 25° 212° (SSW) 1,385 7.3 -15.8°
Maximum altitude 03:21:35 32° 175° (S) 1,122 7.1 -15.5°
Drops below altitude 10° 03:25:30 10° 111° (ESE) 1,893 8.9 -14.9°
Sets 03:27:45 0° 101° (E) 2,698 9.9 -14.6°
